Location: Colorado Springs
(38.8340°N, 104.8210°W)
Time: 12:51:26
(UTC-07:00)

Vanguard 3 - Visible Passes

Search period start: 12 December 2017 00:00
Search period end: 22 December 2017 00:00
Orbit: 509 x 3263 km, 33.3° (Epoch: 11 December)

Date Brightness Start Highest point End Pass type
(mag) Time Alt. Az. Time Alt. Az. Time Alt. Az.
12 Dec 9.2 17:21:30 10° WSW 17:25:07 23° SSW 17:30:08 10° SE visible
13 Dec 10.0 18:21:03 10° SW 18:23:23 12° SSW 18:26:07 10° S visible
14 Dec 9.5 17:06:53 10° WSW 17:09:45 17° SSW 17:13:18 10° SSE visible
21 Dec 11.5 06:17:36 10° S 06:22:48 13° SSE 06:27:07 10° SE visible
